Regional Weather Roundup
Issued by NWS

Home | Current Version | Previous Version | Text Only | Print | Product List | Glossary Off
Versions: 1 2 3 4 5 6 7 8 9 10 11 12 13 14 15 16 17 18 19 20 21 22 23 24 25 26 27 28 29 30 31 32 33 34 35 36 37 38 39 40 41 42 43 44 45 46 47 48 49 50

000
ASUS43 KBIS 261202
RWRND

NORTH DAKOTA REGIONAL WEATHER ROUNDUP
NATIONAL WEATHER SERVICE BISMARCK ND
700 AM CDT TUE JUL 26 2016

NOTE: "FAIR" INDICATES FEW OR NO CLOUDS BELOW 12,000 FEET WITH NO
SIGNIFICANT WEATHER AND/OR OBSTRUCTIONS TO VISIBILITY.


NDZ001>003-009>011-017-261300-
NORTHWEST NORTH DAKOTA

CITY           SKY/WX    TMP DP  RH WIND       PRES   REMARKS
WILLISTON      CLEAR     64  59  83 N9        30.03R
6HR MIN TEMP:  62; 6HR MAX TEMP:  73;

MINOT          CLEAR     65  61  87 W3        30.00S
MINOT AFB      CLEAR     62  60  93 N3        30.00R
$$

NDZ018>021-031>035-040>046-261300-
SOUTHWEST NORTH DAKOTA

CITY           SKY/WX    TMP DP  RH WIND       PRES   REMARKS
BISMARCK       CLEAR     69  67  93 NE8       29.96R
6HR MIN TEMP:  69; 6HR MAX TEMP:  74;

DICKINSON      CLOUDY    64  63  96 NE7       30.00R
GARRISON         N/A     67  65  93 E5        29.99S
6HR MIN TEMP:  61; 6HR MAX TEMP:  69;

HETTINGER ARPT CLOUDY    68  65  90 NE9       29.99F
$$

NDZ004>008-012>016-024-026-027-054-261300-
NORTHEAST NORTH DAKOTA

CITY           SKY/WX    TMP DP  RH WIND       PRES   REMARKS
GRAND FORKS    CLOUDY    67  64  90 N6        29.93R
GRND FRKS AFB  PTCLDY    65  65  99 N5        29.94S
DEVILS LAKE    CLEAR     63  62  97 N5        29.99S
$$

NDZ022-023-025-028>030-036>039-047>053-261300-
SOUTHEAST NORTH DAKOTA

CITY           SKY/WX    TMP DP  RH WIND       PRES   REMARKS
FARGO          CLOUDY    72  61  68 SW8       29.95R
6HR MIN TEMP:  68; 6HR MAX TEMP:  75; 6HR PCP: TRACE;

JAMESTOWN      CLOUDY    68  67  96 N7        29.97R
$$





USA.gov is the U.S. government's official web portal to all federal, state and local government web resources and services.